Starlink 11708

operational
NORAD ID: 64238 Int'l Des: 2025-119 Owner: SPXS Country: US Constellation: starlink
LEOCIRCULAR

关于 Starlink 11708

正在加载描述...

实时位置

正在加载3D地球...

即将过境

高度历史

Altitude vs Time

uPlot chart will show altitude changes over time

两行轨道根数

1 64238U 25119F 26095.22271613 .00415734 00000-0 30783-2 0 9994
2 64238 42.9994 49.5422 0001977 318.5810 41.4908 15.70885195 49411
Epoch: Apr 5, 2026 • Age: 17 hours

当前状态

高度 356.4 km
速度 7.70 km/s
星下点 28.97°N, 14.27°E
发射日期 Jun 3, 2025
运行时间 0.8 years
类型 internet

技术详情

分类 Payload
质量 960.00 kg
干质量 910.00 kg
总质量 960.00 kg
长度 0.30 m
直径 4.10 m
跨度 29.00 m
形状 Box + pan
制造商 SPXS
平台类型 Starlink V2MD
阶段状态 In Orbit
所有者/国家 SPXS/US

大型星座

Loading constellations...